Faith, SD

11:36 PM MDT on May 27, 2017 (GMT -0600)
Faith

Weather History for KD07 - June, 2013

Change the Weather History Date:

Monday, June 24, 2013

  Actual Average Record
Temperature  
Mean Temperature 74 °F 68 °F  
Max Temperature 88 °F 81 °F 102 °F (2001)
Min Temperature 59 °F 55 °F 46 °F (2003)
Degree Days  
Heating Degree Days 0 1  
Month to date heating degree days 73 83  
Since 1 June heating degree days 73 83  
Since 1 July heating degree days 7607 7702  
Cooling Degree Days 9 4  
Month to date cooling degree days 45 56  
Year to date cooling degree days 58 68  
Since 1 June cooling degree days 45 56  
Growing Degree Days 23 (Base 50)    
Moisture  
Dew Point 60 °F    
Average Humidity 67    
Maximum Humidity 93    
Minimum Humidity 40    
Precipitation  
Precipitation 0.00 in 0.12 in 0.92 in (2003)
Month to date precipitation 1.26 2.31  
Year to date precipitation 8.90 8.61  
Sea Level Pressure  
Sea Level Pressure 29.67 in    
Wind  
Wind Speed 16 mph (SE)    
Max Wind Speed 31 mph    
Max Gust Speed 37 mph    
T = Trace of Precipitation, MM = Missing Value Source: NWS Daily Summary

Daily Weather History Graph

Daily Weather History Graph

Search for Another Location

Airport or City:

Trip Planner

Search our weather history database for the weather conditions in past years. The results will help you decide how hot, cold, wet, or windy it might be!

Date:

Astronomy

Jun. 24, 2013 Rise Set
Actual Time 5:02 AM MDT 8:39 PM MDT
Civil Twilight 4:24 AM MDT 9:16 PM MDT
Nautical Twilight 3:34 AM MDT 10:06 PM MDT
Astronomical Twilight 2:28 AM MDT 11:12 PM MDT
Moon 9:36 PM MDT (6/24) 6:37 AM MDT (6/24)
Length of Visible Light 16h 51m
Length of Day
15h 36m
Full, 97% of the Moon is Illuminated
Jun 24
Full
Jun 29
Last Quarter
Jul 8
New
Jul 15
First Quarter
Jul 22
Full

Hourly Weather History & Observations

Time (MDT) Temp. Heat Index Dew Point Humidity Pressure Visibility Wind Dir Wind Speed Gust Speed Precip Events Conditions
12:56 AM 59.0 °F - 52.0 °F 78% 29.81 in - SSE 10.4 mph - N/A   Unknown
1:56 AM 61.0 °F - 52.0 °F 72% 29.78 in - SSE 13.8 mph - N/A   Unknown
2:56 AM 61.0 °F - 53.1 °F 75% 29.77 in - SE 13.8 mph - N/A   Unknown
3:56 AM 61.0 °F - 54.0 °F 78% 29.75 in - SE 13.8 mph - N/A   Unknown
4:56 AM 61.0 °F - 55.9 °F 83% 29.74 in - SE 12.7 mph - N/A   Unknown
5:56 AM 62.1 °F - 57.9 °F 86% 29.72 in - SE 16.1 mph - N/A   Unknown
6:56 AM 64.9 °F - 60.1 °F 84% 29.70 in - SE 13.8 mph 23.0 mph N/A   Unknown
7:56 AM 66.9 °F - 62.1 °F 84% 29.69 in - SSE 16.1 mph 23.0 mph N/A   Unknown
8:56 AM 71.1 °F - 63.0 °F 75% 29.68 in - SE 13.8 mph 21.9 mph N/A   Unknown
9:56 AM 75.0 °F - 64.0 °F 69% 29.68 in - SE 13.8 mph 21.9 mph N/A   Unknown
10:56 AM 77.0 °F - 63.0 °F 62% 29.69 in - SSE 19.6 mph 25.3 mph N/A   Unknown
11:56 AM 81.0 °F 81.7 °F 61.0 °F 50% 29.67 in - SSE 21.9 mph 27.6 mph N/A   Unknown
12:56 PM 82.9 °F 82.8 °F 59.0 °F 44% 29.65 in - SSE 25.3 mph 34.5 mph N/A   Unknown
1:56 PM 84.0 °F 84.0 °F 60.1 °F 44% 29.63 in - SSE 20.7 mph 32.2 mph N/A   Unknown
2:56 PM 86.0 °F 85.7 °F 60.1 °F 41% 29.62 in - South 17.3 mph 28.8 mph N/A   Unknown
3:56 PM 87.1 °F 87.0 °F 61.0 °F 41% 29.60 in - SSE 12.7 mph 24.2 mph N/A   Unknown
4:56 PM 84.0 °F 84.4 °F 61.0 °F 46% 29.60 in - SE 18.4 mph - N/A   Unknown
5:56 PM 80.1 °F 81.5 °F 63.0 °F 56% 29.62 in - SE 17.3 mph 24.2 mph N/A   Unknown
6:56 PM 79.0 °F - 62.1 °F 56% 29.62 in - SE 16.1 mph - N/A   Unknown
7:56 PM 75.9 °F - 62.1 °F 62% 29.62 in - SE 16.1 mph - N/A   Unknown
8:56 PM 73.9 °F - 64.0 °F 71% 29.63 in - SE 13.8 mph - N/A   Unknown
9:56 PM 70.0 °F - 64.0 °F 81% 29.63 in - SSE 12.7 mph - N/A   Unknown
10:56 PM 68.0 °F - 64.0 °F 87% 29.63 in - SSE 10.4 mph - N/A   Unknown
11:56 PM 66.9 °F - 64.0 °F 90% 29.61 in - SE 15.0 mph - N/A   Unknown